Orbital Elements at Epoch 2459200.5 (2020-Dec-17.0) TDB
Reference: JPL 63 (heliocentric ecliptic J2000)
Element | Value | Uncertainty (1-sigma) | Units |
e | .7235613689637452 | 8.4437e-08 | |
a | 1.064688695689249 | 2.4925e-09 | au |
q | .2943210855161116 | 8.9635e-08 | au |
i | 21.51009389738773 | 1.5842e-05 | deg |
node | 158.7499623230737 | 1.4356e-05 | deg |
peri | 229.4805201056761 | 1.348e-05 | deg |
M | 332.4150593255746 | 9.0319e-06 | deg |
tp | 2459231.246943149504 (2021-Jan-16.74694315) | 1.0124e-05 | TDB |
period | 401.2660264331714 1.10 | 1.4091e-06 3.858e-09 | d yr |
n | .8971604279585228 | 3.1505e-09 | deg/d |
Q | 1.835056305862386 | 4.2961e-09 | au |
|
| | Orbit Determination Parameters
Additional Information
|